TimeCST,TemperatureF,Dew PointF,Humidity,Sea Level PressureIn,VisibilityMPH,Wind Direction,Wind SpeedMPH,Gust SpeedMPH,PrecipitationIn,Events,Conditions,WindDirDegrees,DateUTC
12:55 AM,48.4,48.4,100,30.25,10.0,North,5.8,-,N/A,,Overcast,360,2013-01-20 06:55:00
1:55 AM,47.3,47.3,100,30.24,10.0,NNE,4.6,-,N/A,,Mostly Cloudy,20,2013-01-20 07:55:00
2:55 AM,45.5,45.5,100,30.24,10.0,North,5.8,-,N/A,,Scattered Clouds,360,2013-01-20 08:55:00
3:55 AM,44.1,44.1,100,30.23,10.0,North,4.6,-,N/A,,Clear,360,2013-01-20 09:55:00
4:55 AM,42.8,42.8,100,30.23,10.0,North,4.6,-,N/A,,Clear,10,2013-01-20 10:55:00
5:55 AM,41.4,41.4,100,30.24,10.0,North,6.9,-,N/A,,Clear,360,2013-01-20 11:55:00
6:55 AM,41.4,41.4,100,30.25,10.0,North,6.9,-,N/A,,Clear,350,2013-01-20 12:55:00
7:55 AM,47.3,47.3,100,30.25,10.0,North,8.1,-,N/A,,Clear,10,2013-01-20 13:55:00
8:55 AM,56.1,52.9,89,30.27,10.0,North,6.9,-,N/A,,Clear,360,2013-01-20 14:55:00
9:55 AM,62.6,53.1,71,30.26,10.0,North,9.2,-,N/A,,Clear,10,2013-01-20 15:55:00
10:55 AM,64.0,52.2,65,30.23,10.0,North,9.2,-,N/A,,Clear,360,2013-01-20 16:55:00
11:15 AM,64.4,51.8,64,30.22,10.0,NNE,8.1,-,N/A,Rain,Light Rain,20,2013-01-20 17:15:00
11:43 AM,64.4,51.8,64,30.21,10.0,Variable,4.6,-,N/A,,Clear,0,2013-01-20 17:43:00
11:55 AM,64.8,51.8,63,30.20,10.0,NNE,6.9,-,0.00,,Clear,30,2013-01-20 17:55:00
11:56 AM,64.4,51.8,64,30.20,10.0,Variable,5.8,-,N/A,Rain,Light Rain,0,2013-01-20 17:56:00
12:07 PM,64.4,51.8,64,30.19,10.0,NE,3.5,-,N/A,,Clear,50,2013-01-20 18:07:00
12:26 PM,66.2,51.8,60,30.18,10.0,NNE,5.8,-,N/A,Rain,Light Rain,20,2013-01-20 18:26:00
12:44 PM,66.2,51.8,60,30.17,10.0,Variable,3.5,-,N/A,,Clear,0,2013-01-20 18:44:00
12:52 PM,66.2,51.8,60,30.17,10.0,Calm,Calm,-,N/A,,Light Drizzle,0,2013-01-20 18:52:00
12:55 PM,66.4,52.2,60,30.17,10.0,South,4.6,-,0.00,,Light Drizzle,180,2013-01-20 18:55:00
1:06 PM,66.2,53.6,64,30.16,10.0,SSW,9.2,-,N/A,,Clear,200,2013-01-20 19:06:00
1:55 PM,64.4,52.9,66,30.14,10.0,SSW,9.2,-,0.00,,Clear,210,2013-01-20 19:55:00
2:55 PM,63.9,53.1,68,30.13,10.0,SW,9.2,-,N/A,,Clear,220,2013-01-20 20:55:00
3:55 PM,62.8,52.7,70,30.13,10.0,SW,8.1,-,N/A,,Clear,230,2013-01-20 21:55:00
4:55 PM,60.3,52.7,76,30.14,10.0,SW,5.8,-,N/A,,Clear,220,2013-01-20 22:55:00
5:55 PM,58.5,52.3,80,30.14,10.0,Calm,Calm,-,N/A,,Clear,0,2013-01-20 23:55:00
6:55 PM,52.9,50.5,92,30.14,10.0,WNW,3.5,-,N/A,,Clear,290,2013-01-21 00:55:00
7:55 PM,54.5,50.2,85,30.15,10.0,NW,3.5,-,N/A,,Clear,320,2013-01-21 01:55:00
8:55 PM,48.6,48.4,99,30.16,10.0,NNW,3.5,-,N/A,,Clear,330,2013-01-21 02:55:00
9:55 PM,47.1,47.1,100,30.16,10.0,NNW,3.5,-,N/A,,Clear,340,2013-01-21 03:55:00
10:55 PM,45.5,45.5,100,30.16,10.0,NNW,3.5,-,N/A,,Clear,340,2013-01-21 04:55:00
11:55 PM,44.4,44.4,100,30.14,10.0,North,3.5,-,N/A,,Clear,350,2013-01-21 05:55:00